Location: Lac de la Montange Noire
(46.1952°N, 74.2701°W)
Time: 10:04:10
(UTC-04:00)

Iridium 42 - Visible Passes

Search period start: 02 September 2014 00:00
Search period end: 12 September 2014 00:00
Orbit: 776 x 779 km, 86.4° (Epoch: 01 September)

Date Brightness Start Highest point End Pass type
(mag) Time Alt. Az. Time Alt. Az. Time Alt. Az.
02 Sep 7.4 20:28:38 10° NNW 20:33:16 34° W 20:37:54 10° SSW visible
03 Sep 6.3 19:54:46 10° N 19:59:54 59° W 20:04:59 10° SSW visible
04 Sep 8.6 21:03:45 10° NW 21:06:23 14° WNW 21:09:01 10° WSW visible
05 Sep 8.1 20:29:04 10° NNW 20:33:12 24° W 20:37:19 10° SW visible
06 Sep 7.1 19:55:01 10° NNW 19:59:54 42° W 20:04:46 10° SSW visible
08 Sep 8.6 20:29:43 10° NW 20:33:05 18° WNW 20:36:27 10° WSW visible
09 Sep 7.8 19:55:22 10° NNW 19:59:51 30° W 20:04:20 10° SW visible
11 Sep 9.0 20:30:50 10° NW 20:32:56 12° WNW 20:35:01 10° W visible
